Regional Weather Roundup
Issued by NWS

Home | Current Version | Previous Version | Text Only | Print | Product List | Glossary Off
Versions: 1 2 3 4 5 6 7 8 9 10 11 12 13 14 15 16 17 18 19 20 21 22 23 24 25 26 27

000
ASUS45 KCYS 210610
RWRWY

WYOMING REGIONAL WEATHER ROUNDUP
NATIONAL WEATHER SERVICE CHEYENNE WY
1200 AM MDT SAT APR 21 2018

NOTE:  "FAIR" INDICATES FEW OR NO CLOUDS BELOW 12,000 FEET
WITH NO SIGNIFICANT WEATHER AND/OR OBSTRUCTIONS TO VISIBILITY.

WYZ001-210700-
YELLOWSTONE NATIONAL PARK

CITY           SKY/WX    TMP DP  RH WIND       PRES   REMARKS
LK YELLOWSTONE   N/A     27  22  81 N3        30.20S
6HR MIN TEMP:  27; 6HR MAX TEMP:  50;

W YELLOWSTONE  NOT AVBL

$$
WYZ002>013-054>058-071-098>099-210700-
NORTHERN WYOMING

CITY           SKY/WX    TMP DP  RH WIND       PRES   REMARKS
JACKSON        FAIR      35  23  61 SE5       30.13R WCI  31
CODY           FAIR      47  32  56 W6        30.14S
GREYBULL       FAIR      45  37  73 SE5       30.06R
6HR MIN TEMP:  45; 6HR MAX TEMP:  63;

WORLAND        FAIR      42  34  73 S10       30.07S
6HR MIN TEMP:  41; 6HR MAX TEMP:  61;

SHERIDAN       FAIR      39  33  79 S8        30.11S WCI  33
6HR MIN TEMP:  36; 6HR MAX TEMP:  60;

BUFFALO        FAIR      37  33  85 SE8       30.14S WCI  31
6HR MIN TEMP:  37; 6HR MAX TEMP:  51;

GILLETTE       CLOUDY    38  34  85 S16       30.15F WCI  29
6HR MIN TEMP:  38; 6HR MAX TEMP:  50;

HULETT         CLOUDY    41  32  70 SW12G20   30.16F
NEWCASTLE      CLOUDY    36  34  93 SE12G17   30.21S WCI  27

$$
WYZ014>020-022>026-101>103-210700-
CENTRAL WYOMING

CITY           SKY/WX    TMP DP  RH WIND       PRES   REMARKS
BIG PINEY      FAIR      31  24  75 N9        30.13S WCI  23
6HR MIN TEMP:  31; 6HR MAX TEMP:  56;

PINEDALE       FAIR      32  25  74 NW3       30.14R
DUBOIS         FAIR      34  27  75 S3        30.15S
LANDER         MOCLDY    40  31  70 W6        30.13R
6HR MIN TEMP:  40; 6HR MAX TEMP:  51;

RIVERTON       CLOUDY    40  33  76 SE6       30.15R
6HR MIN TEMP:  40; 6HR MAX TEMP:  49;

CASPER         CLOUDY    35  35 100 N8        30.13S WCI  29
6HR MIN TEMP:  34; 6HR MAX TEMP:  44; 6HR PCP:  0.15;

DOUGLAS        CLOUDY    36  36 100 SE12      30.16R WCI  28
6HR MIN TEMP:  36; 6HR MAX TEMP:  41; 6HR PCP:  0.01;


$$
WYZ021-027>030-104>119-210700-
SOUTHERN WYOMING

CITY           SKY/WX    TMP DP  RH WIND       PRES   REMARKS
EVANSTON       FAIR      43  27  53 N6        30.14R
6HR MIN TEMP:  41; 6HR MAX TEMP:  53;

KEMMERER       FAIR      36  32  87 CALM      30.14R
FORT BRIDGER   FAIR      37  36  97 W6        30.16S WCI  32
ROCK SPRINGS   CLOUDY    37  30  75 NE5       30.14R WCI  33
6HR MIN TEMP:  36; 6HR MAX TEMP:  42;

DIXON          CLOUDY    37  31  78 NE18      30.07R WCI  27
RAWLINS          N/A    N/A N/A N/A MISG      30.11R
SARATOGA       CLOUDY    34  34 100 N7        30.06S WCI  28
LARAMIE        LGT SNOW  29  29 100 E9        30.09R FOG     WCI  20
6HR MIN TEMP:  30; 6HR MAX TEMP:  33; 6HR PCP:  0.06;

CHEYENNE       FRZ RAIN  32  32 100 SE12      30.12S FOG     WCI  23
6HR MIN TEMP:  32; 6HR MAX TEMP:  33; 6HR PCP:  0.14;

TORRINGTON     LGT RAIN  35  35 100 E13       30.18R FOG     WCI  26
6HR MIN TEMP:  35; 6HR MAX TEMP:  38; 6HR PCP:  0.02;

PINE BLUFFS    CLOUDY    34  34 100 MISG      30.16R

$$




USA.gov is the U.S. government's official web portal to all federal, state and local government web resources and services.